Wind_Speed
34 34 31 30 31 30 29 27 26 26 27 32 26 22 26 29 43 54 58 60 59 56 57 71 62 46 49 58 59 62 66 62 59 51 50 48 47 47 48 45 44 44 43
35 34 32 30 31 32 31 28 26 25 24 26 30 21 27 27 31 44 53 54 56 60 62 60 60 54 54 47 64 56 55 62 62 59 55 56 50 45 46 47 45 45 45
34 33 32 30 31 31 30 28 25 25 23 24 27 20 20 23 28 33 43 49 50 49 49 50 52 51 55 53 60 59 59 53 60 61 61 61 55 50 49 48 48 47 47
33 33 32 30 30 30 30 28 24 22 21 22 23 26 16 25 22 31 42 51 52 48 44 43 43 49 49 53 61 60 60 61 61 61 62 64 63 57 53 52 51 51 50
33 33 31 29 30 28 28 27 24 22 21 19 21 20 20 17 24 28 35 46 44 48 47 45 41 46 49 47 54 50 55 59 64 64 62 64 69 66 62 56 53 50 51
34 32 31 29 28 29 26 25 23 21 19 16 19 18 21 13 19 28 34 42 47 47 44 51 43 52 54 51 52 52 57 55 59 66 66 63 67 71 65 61 58 56 55
33 31 30 30 29 29 26 25 22 20 18 17 17 16 16 18 13 20 26 35 40 47 51 50 52 51 48 55 59 51 46 55 54 62 69 66 63 67 69 65 63 62 60
32 30 31 30 31 31 29 24 22 20 17 15 15 16 14 15 18 10 15 25 44 43 48 57 60 59 51 55 55 54 45 41 51 60 72 71 65 59 64 68 65 63 60
32 31 32 32 32 32 31 28 24 21 20 19 17 14 12 12 17 18 9 10 21 37 49 56 58 57 51 52 52 52 45 56 52 62 68 73 68 66 60 63 70 71 71
32 32 32 32 32 32 33 31 26 23 21 21 19 17 17 15 12 14 19 15 3 17 26 49 53 58 55 57 57 52 52 53 54 55 56 65 68 68 67 63 65 73 74
32 32 32 31 31 31 30 30 27 22 19 19 20 16 16 16 14 12 13 14 18 7 18 20 26 43 49 54 55 49 50 50 48 54 70 62 67 65 70 63 64 67 75
30 30 30 30 30 29 28 27 26 24 21 19 18 17 15 15 15 12 11 11 12 18 13 7 18 17 29 38 40 45 48 49 51 52 50 62 77 72 71 70 64 66 70
28 28 28 28 29 28 28 26 25 25 25 23 23 21 17 14 13 12 10 10 8 5 11 13 12 3 17 24 36 35 31 32 48 53 54 52 52 62 74 71 73 69 66
27 27 27 27 27 27 28 28 27 26 26 26 27 26 25 22 16 12 10 8 8 7 4 6 7 9 5 9 19 23 23 27 30 35 42 42 51 60 59 63 69 71 71
27 26 26 26 26 26 28 29 29 30 30 28 28 30 28 27 26 24 19 11 9 9 7 5 7 6 5 8 10 12 17 22 26 36 38 41 39 46 52 63 64 68 69
28 26 26 26 25 24 25 25 28 28 28 27 28 28 28 28 26 23 21 19 16 11 9 6 5 7 7 5 8 11 13 16 20 24 27 31 31 37 41 49 60 67 50
29 26 25 25 25 24 23 23 23 24 27 26 25 25 26 26 25 24 22 20 20 17 12 10 8 7 7 7 7 10 11 12 12 17 21 26 27 27 32 38 43 50 63
29 27 25 25 24 24 23 23 23 23 22 24 24 23 23 24 24 23 21 19 16 15 13 12 10 7 7 7 7 9 11 12 12 13 15 18 23 25 28 30 31 36 41
28 28 26 24 24 24 22 21 21 22 23 22 22 23 23 23 24 22 21 18 17 16 14 13 12 11 9 8 7 8 10 11 12 13 13 14 17 20 21 23 28 32 33
28 28 27 25 23 23 22 21 20 20 21 21 22 23 23 22 22 21 20 19 18 17 15 13 11 11 10 10 10 8 8 9 12 13 13 14 16 17 19 20 21 23 27
28 27 27 26 24 22 22 22 21 19 20 20 21 22 23 24 23 22 21 19 19 19 17 14 12 10 9 9 10 11 11 10 10 11 13 14 15 16 17 18 20 22 24
28 28 27 26 25 23 21 21 21 21 19 19 19 20 20 21 22 22 20 20 19 19 19 18 16 14 11 8 8 8 9 11 11 11 12 12 13 15 16 18 20 22 22
29 28 27 25 25 24 23 21 20 20 20 20 19 18 19 20 20 20 21 20 18 18 18 18 18 16 15 13 11 9 9 9 10 11 11 12 13 13 15 16 18 19 21
29 27 26 24 23 24 23 22 21 20 20 20 20 20 19 18 19 19 19 19 20 19 18 18 17 17 16 15 14 12 12 11 11 11 11 11 12 13 15 16 18 20 20
28 27 25 24 23 21 22 22 21 20 19 19 19 20 20 19 18 18 18 18 18 17 18 18 16 16 15 15 16 15 14 14 14 12 12 12 12 12 13 14 16 17 18
28 26 25 23 22 22 21 21 21 20 20 19 18 18 19 19 19 18 18 18 18 18 17 17 17 16 15 15 14 14 14 14 15 14 13 12 12 12 12 13 14 15 17
Wind_Direction
343 343 342 344 343 340 332 325 324 328 343 344 321 276 258 245 230 229 230 232 235 237 236 239 247 238 225 222 220 225 229 229 231 227 233 227 231 229 228 226 225 226 228
342 342 341 343 342 342 338 330 325 323 334 343 339 301 270 255 242 227 227 230 231 235 238 241 240 240 246 249 219 225 222 230 230 227 229 233 223 228 232 234 229 229 231
341 340 340 342 340 339 339 335 326 322 327 337 337 321 275 265 252 230 227 218 218 227 233 236 242 240 235 229 221 230 225 229 230 228 230 234 225 223 226 231 231 231 230
341 339 339 341 338 339 337 335 331 322 321 330 333 343 299 265 253 236 226 218 217 224 228 230 231 229 227 227 227 227 225 227 224 226 227 232 230 222 223 226 229 229 229
342 342 340 342 338 339 338 337 336 329 324 323 330 339 331 287 263 247 238 221 231 218 225 229 228 227 221 222 228 234 229 235 233 227 226 229 233 226 222 223 227 229 231
346 347 344 344 341 341 342 339 340 335 324 321 326 331 343 310 271 262 244 231 226 223 233 226 228 219 219 214 218 223 220 229 236 235 231 228 230 231 225 224 226 228 229
348 349 352 351 348 345 348 344 343 340 331 322 325 329 344 341 283 268 255 237 234 231 222 228 226 223 223 218 217 215 220 235 240 233 235 230 230 233 231 228 227 230 231
349 352 356 359 357 353 352 350 348 345 340 331 332 328 344 352 345 297 261 243 230 231 237 217 227 225 220 221 223 219 210 223 234 234 232 234 231 232 236 235 234 234 235
349 354 358 2 4 1 359 359 356 352 349 345 344 336 337 347 348 347 316 243 220 230 226 220 219 222 223 214 216 228 235 220 233 230 229 231 230 229 233 236 235 235 234
352 355 357 1 4 6 3 4 4 358 354 347 349 343 341 339 349 348 351 338 287 215 214 221 228 219 218 220 226 227 227 231 236 228 228 224 228 232 229 234 237 237 236
354 354 355 358 359 5 4 4 9 7 3 354 350 352 345 337 338 349 349 337 339 312 200 205 200 200 207 212 217 220 226 233 234 229 232 230 226 232 231 229 234 238 239
356 354 353 356 357 1 5 7 9 14 16 10 4 3 353 341 342 344 336 339 346 339 326 215 195 186 195 204 209 220 231 234 235 229 229 227 228 229 231 230 229 234 238
358 355 353 354 357 356 2 7 9 10 13 19 17 16 14 5 356 352 349 328 345 323 314 333 335 247 188 198 208 215 219 222 232 231 227 231 231 227 228 234 236 235 238
359 357 355 355 356 358 358 3 6 9 10 13 15 17 18 15 12 11 13 2 340 337 303 308 301 315 337 220 209 212 214 223 225 220 228 238 242 238 232 228 235 236 241
357 358 357 356 356 358 359 0 3 4 6 9 11 10 12 13 15 15 10 12 2 2 326 324 297 293 286 296 278 257 236 221 221 229 229 231 233 239 234 233 233 234 236
356 356 358 358 357 357 0 3 1 2 3 4 4 8 9 8 9 12 12 13 12 11 348 343 310 300 294 272 251 256 260 264 242 222 224 226 224 229 236 237 237 232 237
354 354 355 356 357 357 358 0 3 2 2 2 1 3 6 8 9 10 10 10 11 7 360 351 343 310 300 289 276 263 257 256 245 253 248 238 229 228 228 237 240 240 235
351 352 352 352 354 356 355 356 358 1 2 3 1 3 6 8 10 11 10 9 6 7 9 3 359 346 327 309 294 283 277 271 261 251 240 244 251 246 237 234 237 239 240
349 349 349 349 350 351 353 351 353 356 360 2 5 4 5 8 11 10 11 10 15 15 14 12 9 359 352 338 324 303 292 288 284 279 271 260 250 248 243 243 246 245 245
347 346 346 345 346 346 348 350 348 349 353 358 360 3 7 7 9 12 13 16 14 14 15 13 11 9 4 354 347 334 320 302 289 284 282 274 267 264 264 257 252 252 253
346 344 342 342 341 341 342 345 347 345 347 352 356 359 1 5 7 9 11 12 15 16 15 12 12 10 3 358 350 342 335 330 316 301 287 282 279 272 270 267 266 260 256
345 343 342 339 338 338 338 339 342 344 342 341 348 352 355 358 2 5 7 10 12 13 14 13 9 8 7 355 341 335 330 326 328 325 314 301 293 286 283 276 272 270 266
344 342 341 339 337 336 336 336 336 338 341 342 339 338 344 348 352 357 1 3 5 7 8 9 12 10 4 357 346 338 329 321 314 316 320 318 311 304 297 292 286 283 279
343 342 341 340 338 336 335 335 335 334 335 338 340 342 339 334 337 343 348 353 356 358 358 1 2 2 2 359 354 348 341 337 330 320 316 318 318 314 308 300 292 288 286
342 342 341 339 339 338 336 336 335 333 333 333 335 338 339 342 340 334 332 335 341 346 349 350 347 349 349 352 355 352 345 341 338 331 323 319 318 317 316 313 304 295 288
342 342 341 341 341 341 340 338 336 336 333 331 332 333 334 337 340 341 340 338 333 330 332 335 337 341 339 342 341 347 349 344 339 338 333 328 323 319 320 318 315 309 303
Height
3049 3041 3034 3028 3021 3015 3008 3002 2996 2991 2986 2981 2976 2972 2970 2973 2977 2984 2991 3000 3008 3016 3025 3032 3040 3049 3051 3058 3067 3077 3085 3095 3102 3114 3117 3124 3130 3138 3142 3149 3154 3158 3163
3045 3037 3031 3024 3018 3011 3004 2998 2992 2987 2982 2979 2974 2969 2966 2967 2970 2975 2980 2989 2997 3004 3013 3019 3025 3032 3042 3049 3059 3063 3073 3083 3092 3101 3109 3110 3120 3129 3136 3140 3146 3150 3154
3042 3034 3028 3020 3015 3008 3001 2995 2989 2983 2978 2974 2971 2966 2962 2961 2964 2969 2973 2980 2986 2992 2998 3005 3010 3018 3030 3036 3042 3052 3061 3070 3079 3088 3095 3101 3109 3116 3123 3130 3134 3140 3144
3039 3032 3024 3017 3011 3005 2998 2991 2985 2980 2975 2971 2966 2962 2957 2955 2956 2961 2964 2969 2975 2982 2987 2993 3000 3005 3014 3024 3032 3041 3050 3056 3063 3072 3082 3089 3094 3103 3111 3117 3122 3128 3134
3036 3028 3020 3014 3008 3002 2995 2987 2981 2976 2972 2968 2963 2958 2953 2949 2947 2951 2956 2958 2962 2968 2974 2982 2991 2997 3002 3010 3020 3027 3037 3043 3051 3058 3067 3075 3080 3086 3094 3106 3112 3120 3124
3032 3025 3018 3011 3005 2999 2993 2985 2978 2973 2969 2965 2961 2956 2951 2945 2942 2941 2946 2950 2953 2959 2964 2969 2973 2981 2989 2996 3004 3013 3024 3034 3039 3045 3056 3060 3069 3076 3087 3094 3102 3104 3109
3030 3023 3017 3009 3002 2995 2990 2983 2977 2971 2966 2963 2959 2955 2950 2944 2939 2937 2937 2940 2944 2949 2954 2959 2964 2970 2976 2983 2989 3000 3011 3022 3027 3033 3042 3049 3058 3065 3076 3085 3089 3094 3099
3028 3022 3015 3008 3000 2993 2987 2982 2976 2969 2964 2960 2958 2953 2948 2944 2939 2937 2933 2933 2937 2942 2944 2951 2955 2959 2965 2971 2978 2987 2994 3005 3013 3019 3028 3037 3046 3056 3061 3071 3081 3088 3092
3026 3020 3013 3006 3000 2992 2985 2979 2974 2968 2962 2958 2955 2953 2948 2943 2938 2934 2931 2931 2930 2933 2937 2940 2943 2950 2956 2964 2970 2976 2980 2988 2994 3000 3008 3019 3031 3040 3048 3054 3058 3066 3069
3024 3018 3012 3006 3000 2993 2985 2979 2973 2968 2962 2957 2954 2951 2946 2942 2937 2935 2931 2928 2927 2928 2929 2929 2936 2940 2947 2955 2959 2965 2971 2976 2981 2987 2996 3005 3015 3025 3033 3036 3044 3047 3056
3023 3017 3011 3005 2999 2994 2987 2980 2975 2970 2964 2959 2953 2951 2946 2942 2937 2933 2933 2932 2926 2924 2923 2928 2928 2930 2935 2941 2948 2953 2960 2964 2970 2974 2982 2993 2999 3009 3016 3022 3027 3034 3039
3023 3016 3010 3005 2999 2993 2988 2982 2976 2971 2966 2961 2955 2951 2947 2942 2937 2933 2930 2929 2924 2922 2921 2919 2920 2923 2923 2931 2937 2944 2949 2954 2959 2963 2970 2975 2984 2992 2998 3006 3013 3018 3022
3024 3017 3011 3005 2999 2993 2988 2983 2978 2972 2966 2962 2956 2951 2947 2943 2938 2933 2929 2927 2926 2926 2925 2921 2919 2916 2920 2923 2928 2935 2938 2944 2948 2951 2958 2964 2970 2976 2982 2990 2997 3003 3009
3024 3017 3011 3005 2999 2993 2987 2982 2977 2972 2967 2961 2956 2951 2947 2942 2938 2934 2930 2927 2925 2924 2923 2920 2922 2920 2914 2918 2922 2926 2929 2935 2939 2942 2946 2951 2958 2963 2968 2974 2982 2988 2995
3023 3017 3011 3005 2999 2993 2987 2981 2975 2970 2965 2960 2955 2949 2945 2941 2936 2931 2928 2927 2923 2919 2920 2917 2916 2916 2918 2918 2919 2920 2923 2928 2931 2935 2938 2943 2947 2951 2954 2961 2966 2973 2978
3021 3016 3011 3005 2999 2994 2989 2984 2977 2971 2967 2962 2957 2952 2947 2940 2936 2933 2929 2926 2924 2921 2918 2915 2915 2917 2918 2918 2920 2922 2924 2924 2924 2926 2930 2933 2936 2939 2944 2948 2953 2960 2964
3020 3015 3010 3005 2999 2994 2989 2985 2981 2975 2968 2963 2959 2954 2950 2945 2939 2934 2930 2926 2921 2918 2915 2912 2914 2916 2917 2916 2916 2919 2920 2921 2921 2924 2924 2926 2929 2930 2934 2938 2941 2945 2949
3018 3013 3008 3003 2999 2994 2989 2985 2980 2976 2972 2966 2961 2957 2952 2947 2942 2937 2932 2929 2925 2921 2918 2917 2917 2915 2914 2913 2913 2915 2917 2918 2918 2920 2919 2923 2924 2925 2925 2928 2931 2935 2938
3017 3012 3007 3002 2997 2993 2989 2984 2980 2976 2972 2968 2963 2958 2953 2947 2942 2938 2934 2930 2927 2924 2921 2920 2920 2917 2913 2913 2913 2912 2914 2916 2916 2916 2916 2916 2920 2922 2922 2921 2922 2927 2929
3016 3010 3005 3001 2996 2992 2988 2984 2979 2975 2972 2968 2964 2959 2955 2950 2946 2942 2938 2933 2929 2926 2923 2922 2920 2917 2914 2913 2914 2913 2915 2916 2916 2915 2913 2914 2918 2915 2917 2914 2915 2918 2919
3014 3009 3004 2999 2994 2990 2986 2982 2978 2974 2971 2967 2964 2960 2955 2951 2947 2944 2940 2936 2932 2929 2925 2924 2922 2919 2915 2914 2915 2913 2914 2915 2914 2914 2914 2914 2912 2910 2912 2910 2911 2913 2914
3011 3006 3001 2996 2992 2988 2984 2980 2976 2973 2969 2966 2963 2959 2956 2952 2948 2944 2941 2937 2934 2931 2928 2925 2921 2917 2914 2915 2917 2916 2914 2915 2913 2912 2911 2909 2907 2906 2906 2906 2906 2908 2907
3009 3004 2999 2994 2989 2985 2982 2978 2975 2971 2967 2964 2961 2958 2955 2952 2948 2945 2941 2938 2935 2931 2928 2924 2920 2918 2917 2916 2917 2914 2914 2913 2912 2910 2908 2905 2905 2902 2902 2900 2900 2901 2899
3006 3002 2997 2992 2988 2983 2979 2976 2972 2969 2966 2962 2959 2956 2953 2950 2947 2944 2940 2937 2933 2930 2927 2924 2922 2919 2918 2917 2915 2912 2912 2911 2909 2909 2906 2903 2900 2897 2897 2894 2895 2894 2892
3004 2998 2993 2989 2985 2981 2977 2973 2970 2967 2964 2961 2958 2954 2951 2948 2945 2942 2939 2936 2934 2931 2928 2925 2923 2922 2920 2917 2914 2911 2909 2908 2907 2905 2903 2899 2897 2895 2894 2892 2890 2890 2886
3001 2996 2991 2987 2983 2979 2975 2972 2968 2964 2961 2959 2956 2953 2949 2946 2943 2940 2938 2935 2932 2929 2927 2925 2923 2921 2919 2917 2914 2911 2909 2908 2905 2903 2899 2896 2894 2894 2891 2889 2886 2884 2883